Weather History for Atlantic City, NJ

Change the Weather History Date:

Saturday, February 16, 2013

  Actual Average Record
Temperature  
Mean Temperature 35 °F 35 °F  
Max Temperature 41 °F 44 °F 68 °F (1976)
Min Temperature 29 °F 26 °F 3 °F (1888)
Degree Days  
Heating Degree Days 30 30  
Month to date heating degree days 512 492  
Since 1 July heating degree days 3072 3253  
Cooling Degree Days 0 0  
Month to date cooling degree days 0 0  
Year to date cooling degree days 0 0  
Moisture  
Dew Point 30 °F    
Average Humidity 76    
Maximum Humidity 92    
Minimum Humidity 59    
Precipitation  
Precipitation 0.05 in 0.11 in 0.96 in (1889)
Month to date precipitation 3.35 1.56  
Year to date precipitation 5.65 4.78  
Snow  
Snow 0.40 in 0.20 in 16.00 in (2003)
Month to date snowfall 6.3 4.1  
Since 1 July snowfall 11.4 12.5  
Snow Depth 0.00 in    
Sea Level Pressure  
Sea Level Pressure 29.88 in    
Wind  
Wind Speed 11 mph (NNW)    
Max Wind Speed 21 mph    
Max Gust Speed 27 mph    
Visibility 8 miles    
Events Rain , Snow    
T = Trace of Precipitation, MM = Missing Value Source: NWS Daily Summary

Daily Weather History Graph

Daily Weather History Graph

Search for Another Location

Airport:

Trip Planner

Search our weather history database for the weather conditions in past years. The results will help you decide how hot, cold, wet, or windy it might be!

Date:

Astronomy

Feb. 16, 2013 Rise Set
Actual Time 6:48 AM EST 5:36 PM EST
Civil Twilight 6:21 AM EST 6:03 PM EST
Nautical Twilight 5:49 AM EST 6:35 PM EST
Astronomical Twilight 5:18 AM EST 7:06 PM EST
Moon 10:02 AM EST No Moon Set
Length of Visible Light 11h 42m
Length of Day
10h 47m
Waxing Crescent, 39% of the Moon is Illuminated
Feb 16
Waxing Crescent
Feb 17
First Quarter
Feb 25
Full
Mar 4
Last Quarter
Mar 11
New

Hourly Weather History & Observations

Time (EST) Temp. Windchill Dew Point Humidity Pressure Visibility Wind Dir Wind Speed Gust Speed Precip Events Conditions
12:54 AM 39.9 °F 34.5 °F 32.0 °F 73% 29.97 in 10.0 mi WNW 8.1 mph - N/A   Overcast
1:54 AM 39.9 °F 33.9 °F 32.0 °F 73% 29.96 in 10.0 mi NNW 9.2 mph - N/A   Overcast
2:54 AM 39.0 °F 32.8 °F 32.0 °F 76% 29.95 in 10.0 mi NNW 9.2 mph - N/A   Overcast
3:54 AM 37.9 °F 31.5 °F 32.0 °F 79% 29.94 in 10.0 mi NNW 9.2 mph - N/A   Overcast
4:54 AM 37.0 °F 29.8 °F 32.0 °F 82% 29.95 in 10.0 mi NNW 10.4 mph - N/A   Overcast
5:54 AM 37.0 °F 31.0 °F 32.0 °F 82% 29.95 in 10.0 mi NNW 8.1 mph - N/A   Overcast
6:54 AM 37.0 °F 32.4 °F 32.0 °F 82% 29.94 in 10.0 mi North 5.8 mph - N/A   Overcast
7:24 AM 37.0 °F 31.0 °F 32.0 °F 82% 29.94 in 10.0 mi North 8.1 mph - N/A   Overcast
7:54 AM 37.0 °F 30.4 °F 32.0 °F 82% 29.93 in 10.0 mi North 9.2 mph - N/A   Overcast
8:01 AM 37.0 °F 29.8 °F 32.0 °F 82% 29.93 in 10.0 mi North 10.4 mph - N/A   Overcast
8:16 AM 37.0 °F 29.8 °F 32.0 °F 82% 29.94 in 10.0 mi NNW 10.4 mph - N/A   Overcast
8:54 AM 37.0 °F 29.3 °F 32.0 °F 82% 29.94 in 10.0 mi NNW 11.5 mph - N/A   Mostly Cloudy
9:54 AM 37.9 °F 30.9 °F 32.0 °F 79% 29.94 in 10.0 mi North 10.4 mph - N/A   Overcast
10:54 AM 37.0 °F 30.4 °F 32.0 °F 82% 29.93 in 10.0 mi North 9.2 mph - 0.00 in   Overcast
11:14 AM 36.0 °F 29.0 °F 32.0 °F 86% 29.92 in 10.0 mi North 9.2 mph - 0.00 in   Overcast
11:31 AM 35.1 °F 27.9 °F 32.0 °F 89% 29.92 in 7.0 mi NNW 9.2 mph - 0.01 in Snow Light Snow
11:54 AM 36.0 °F 29.0 °F 33.1 °F 89% 29.91 in 9.0 mi North 9.2 mph - 0.02 in Snow Light Snow
12:54 PM 36.0 °F 28.0 °F 32.0 °F 86% 29.89 in 3.0 mi North 11.5 mph - 0.01 in Snow Light Snow
1:20 PM 36.0 °F 29.0 °F 33.1 °F 89% 29.88 in 3.0 mi North 9.2 mph - 0.00 in   Overcast
1:41 PM 36.0 °F 29.6 °F 33.1 °F 89% 29.87 in 3.0 mi North 8.1 mph - 0.01 in Snow Light Snow
1:54 PM 36.0 °F 29.0 °F 33.1 °F 89% 29.87 in 10.0 mi North 9.2 mph - 0.01 in Rain Light Rain
2:15 PM 36.0 °F 29.0 °F 33.1 °F 89% 29.86 in 3.0 mi North 9.2 mph - 0.00 in   Overcast
2:54 PM 37.0 °F 31.6 °F 33.1 °F 86% 29.86 in 10.0 mi North 6.9 mph - 0.00 in   Overcast
3:54 PM 37.0 °F 32.4 °F 33.1 °F 86% 29.83 in 10.0 mi North 5.8 mph - N/A   Overcast
4:31 PM 37.0 °F 29.3 °F 30.9 °F 79% 29.83 in 10.0 mi North 11.5 mph - N/A   Overcast
4:38 PM 37.0 °F 29.3 °F 30.0 °F 76% 29.83 in 10.0 mi North 11.5 mph - N/A   Overcast
4:54 PM 36.0 °F 28.0 °F 28.9 °F 76% 29.83 in 10.0 mi North 11.5 mph - N/A   Overcast
5:54 PM 35.1 °F 26.4 °F 25.0 °F 67% 29.81 in 10.0 mi NNW 12.7 mph 21.9 mph N/A   Overcast
6:54 PM 35.1 °F 25.2 °F 23.0 °F 61% 29.81 in 10.0 mi North 16.1 mph - N/A   Overcast
7:54 PM 32.0 °F 22.5 °F 25.0 °F 75% 29.82 in 4.0 mi NNW 12.7 mph 24.2 mph 0.00 in Snow Light Snow
8:21 PM 30.9 °F 21.7 °F 26.1 °F 82% 29.81 in 1.8 mi North 11.5 mph - 0.00 in Snow Light Snow
8:44 PM 30.0 °F 22.4 °F 26.1 °F 85% 29.82 in 2.0 mi NNW 8.1 mph - 0.01 in Snow Light Snow
8:54 PM 30.0 °F 22.4 °F 26.1 °F 85% 29.81 in 2.0 mi NNW 8.1 mph - 0.01 in Snow Light Snow
9:10 PM 30.0 °F 21.7 °F 27.0 °F 88% 29.80 in 4.0 mi North 9.2 mph - 0.00 in Snow Light Snow
9:54 PM 30.0 °F 20.0 °F 23.0 °F 75% 29.79 in 3.0 mi North 12.7 mph - 0.00 in Snow Light Snow
10:26 PM 28.9 °F 20.4 °F 23.0 °F 78% 29.77 in 3.0 mi NNW 9.2 mph - 0.00 in Snow Light Snow
10:54 PM 30.0 °F 18.7 °F 21.9 °F 72% 29.77 in 7.0 mi North 16.1 mph - 0.00 in Snow Light Snow
11:54 PM 30.9 °F 19.1 °F 18.0 °F 59% 29.73 in 10.0 mi North 18.4 mph 27.6 mph 0.00 in   Overcast